Midpoint, URN, title, Start Time, Stop Time,start_sol_number,stop_sol_number, start_local_mean_solar_time, stop_local_mean_solar_time, start_local_true_solar_time, stop_local_true_solar_time, start_solar_longitude, stop_solar_longitude, start_mars_year, stop_mars_year, Ls, Mars Year, File Size, path
2021-11-29T23:19:30.76Z,urn:nasa:pds:mars2020_meda:data_derived_env:we__0277___________der_ws__________________p,Mars 2020 MEDA Wind Sensor Derived Data,2021-11-29T19:10:28.649Z,2021-11-30T03:28:32.884Z,277,277,00277M00:00:29.443,00277M08:05:14.105,0277 00:28:36,0277 08:33:24,134.553,134.722,null,null,134.5,36,0.844,WE__0277___________DER_WS__________________P01.CSV
2021-12-01T12:00:48.81Z,urn:nasa:pds:mars2020_meda:data_derived_env:we__0278___________der_ws__________________p,Mars 2020 MEDA Wind Sensor Derived Data,2021-12-01T04:28:45.594Z,2021-12-01T19:32:52.021Z,278,278,00278M08:25:18.461,00278M23:05:13.487,0278 08:53:38,0278 23:33:39,135.23,135.537,null,null,135.29,36,1.309,WE__0278___________DER_WS__________________P01.CSV
2021-12-02T08:49:35.39Z,urn:nasa:pds:mars2020_meda:data_derived_env:we__0279___________der_ws__________________p,Mars 2020 MEDA Wind Sensor Derived Data,2021-12-01T20:29:27.048Z,2021-12-02T21:08:43.748Z,279,279,00279M00:00:17.678,00279M23:59:59.629,0279 00:28:43,0280 00:28:35,135.556,136.059,null,null,135.63,36,2.426,WE__0279___________DER_WS__________________P01.CSV
2021-12-23T23:14:32.60Z,urn:nasa:pds:mars2020_meda:data_derived_env:we__0300___________der_ws__________________p,Mars 2020 MEDA Wind Sensor Derived Data,2021-12-23T12:24:17.802Z,2021-12-24T10:03:47.417Z,300,300,00300M02:00:30.032,00300M23:05:13.515,0300 02:32:19,0300 23:37:11,146.328,146.784,null,null,146.42,36,2.969,WE__0300___________DER_WS__________________P01.CSV
2021-12-24T23:20:36.79Z,urn:nasa:pds:mars2020_meda:data_derived_env:we__0301___________der_ws__________________p,Mars 2020 MEDA Wind Sensor Derived Data,2021-12-24T11:00:34.444Z,2021-12-25T11:39:39.144Z,301,301,00301M00:00:29.384,00301M23:59:59.657,0301 00:32:27,0302 00:32:07,146.804,147.325,null,null,146.93,36,2.606,WE__0301___________DER_WS__________________P01.CSV
2021-12-25T23:31:49.48Z,urn:nasa:pds:mars2020_meda:data_derived_env:we__0302___________der_ws__________________p,Mars 2020 MEDA Wind Sensor Derived Data,2021-12-25T11:39:40.144Z,2021-12-26T11:22:58.817Z,302,302,00302M00:00:00.630,00302M23:05:14.402,0302 00:32:08,0302 23:37:31,147.325,147.827,null,null,147.44,36,3.024,WE__0302___________DER_WS__________________P01.CSV
2021-12-27T00:39:47.19Z,urn:nasa:pds:mars2020_meda:data_derived_env:we__0303___________der_ws__________________p,Mars 2020 MEDA Wind Sensor Derived Data,2021-12-26T12:19:44.844Z,2021-12-27T12:58:49.543Z,303,303,00303M00:00:29.298,00303M23:59:59.571,0303 00:32:46,0304 00:32:26,147.847,148.37,null,null,147.95,36,3.035,WE__0303___________DER_WS__________________P01.CSV
2021-12-28T00:50:29.88Z,urn:nasa:pds:mars2020_meda:data_derived_env:we__0304___________der_ws__________________p,Mars 2020 MEDA Wind Sensor Derived Data,2021-12-27T12:58:50.543Z,2021-12-28T12:42:09.216Z,304,304,00304M00:00:00.544,00304M23:05:14.316,0304 00:32:27,0304 23:37:50,148.37,148.874,null,null,148.45,36,2.61,WE__0304___________DER_WS__________________P01.CSV
2021-12-29T01:58:57.59Z,urn:nasa:pds:mars2020_meda:data_derived_env:we__0305___________der_ws__________________p,Mars 2020 MEDA Wind Sensor Derived Data,2021-12-28T13:38:55.243Z,2021-12-29T14:17:59.943Z,305,305,00305M00:00:29.212,00305M23:59:59.485,0305 00:33:06,0306 00:32:46,148.894,149.418,null,null,148.96,36,2.598,WE__0305___________DER_WS__________________P01.CSV
2021-12-30T02:09:10.27Z,urn:nasa:pds:mars2020_meda:data_derived_env:we__0306___________der_ws__________________p,Mars 2020 MEDA Wind Sensor Derived Data,2021-12-29T14:18:00.943Z,2021-12-30T14:01:19.616Z,306,306,00306M00:00:00.458,00306M23:05:14.230,0306 00:32:46,0306 23:38:09,149.418,149.923,null,null,149.47,36,3.102,WE__0306___________DER_WS__________________P01.CSV
2022-01-02T04:36:33.89Z,urn:nasa:pds:mars2020_meda:data_derived_env:we__0309___________der_ws__________________p,Mars 2020 MEDA Wind Sensor Derived Data,2022-01-01T16:16:47.042Z,2022-01-02T16:56:20.742Z,309,309,00309M00:00:00.816,00309M23:59:59.313,0309 00:33:16,0310 00:33:24,150.997,151.525,null,null,151.17,36,1.985,WE__0309___________DER_WS__________________P01.CSV
2021-03-27T16:47:26.10Z,urn:nasa:pds:mars2020_meda:data_derived_env:we__0036___________der_ws__________________p,Mars 2020 MEDA Wind Sensor Derived Data,2021-03-27T05:42:18.038Z,2021-03-28T03:52:34.167Z,36,36,00036M01:30:24.327,00036M23:05:04.919,0036 01:05:04,0036 22:40:05,23.035,23.466,null,null,23.16,36,2.547,WE__0036___________DER_WS__________________P02.CSV
2021-03-28T20:13:20.38Z,urn:nasa:pds:mars2020_meda:data_derived_env:we__0037___________der_ws__________________p,Mars 2020 MEDA Wind Sensor Derived Data,2021-03-28T16:07:33.015Z,2021-03-29T00:20:07.748Z,37,37,00037M11:00:23.871,00037M18:59:47.847,0037 10:35:34,0037 18:35:06,23.704,23.864,null,null,23.63,36,2.477,WE__0037___________DER_WS__________________P02.CSV
2021-03-29T18:06:36.50Z,urn:nasa:pds:mars2020_meda:data_derived_env:we__0038___________der_ws__________________p,Mars 2020 MEDA Wind Sensor Derived Data,2021-03-29T09:04:46.496Z,2021-03-30T03:08:26.509Z,38,38,00038M03:30:24.359,00038M21:05:04.715,0038 03:05:50,0038 20:40:47,24.033,24.384,null,null,24.1,36,3.418,WE__0038___________DER_WS__________________P02.CSV
2021-03-30T19:45:34.73Z,urn:nasa:pds:mars2020_meda:data_derived_env:we__0039___________der_ws__________________p,Mars 2020 MEDA Wind Sensor Derived Data,2021-03-30T11:16:50.240Z,2021-03-31T04:13:19.220Z,39,39,00039M05:00:24.404,00039M21:29:41.582,0039 04:36:14,0039 21:05:46,24.541,24.869,null,null,24.56,36,2.899,WE__0039___________DER_WS__________________P02.CSV
2021-03-31T18:39:32.38Z,urn:nasa:pds:mars2020_meda:data_derived_env:we__0040___________der_ws__________________p,Mars 2020 MEDA Wind Sensor Derived Data,2021-03-31T08:51:27.852Z,2021-04-01T04:27:36.908Z,40,40,00040M02:00:23.698,00040M21:05:04.629,0040 01:36:32,0040 20:41:31,24.959,25.338,null,null,25.03,36,1.184,WE__0040___________DER_WS__________________P02.CSV
2021-04-01T19:47:33.59Z,urn:nasa:pds:mars2020_meda:data_derived_env:we__0041___________der_ws__________________p,Mars 2020 MEDA Wind Sensor Derived Data,2021-04-01T07:27:45.493Z,2021-04-02T08:06:21.693Z,41,41,00041M00:00:24.023,00041M23:59:26.558,0040 23:36:53,0041 23:36:18,25.397,25.873,null,null,25.49,36,4.16,WE__0041___________DER_WS__________________P02.CSV
2021-04-02T20:41:43.80Z,urn:nasa:pds:mars2020_meda:data_derived_env:we__0042___________der_ws__________________p,Mars 2020 MEDA Wind Sensor Derived Data,2021-04-02T09:39:49.237Z,2021-04-03T07:42:38.363Z,42,42,00042M01:30:24.069,00042M22:57:49.618,0042 01:07:16,0042 22:35:02,25.903,26.328,null,null,25.95,36,2.055,WE__0042___________DER_WS__________________P02.CSV
2021-04-03T19:36:36.95Z,urn:nasa:pds:mars2020_meda:data_derived_env:we__0043___________der_ws__________________p,Mars 2020 MEDA Wind Sensor Derived Data,2021-04-03T11:51:52.980Z,2021-04-04T03:21:20.920Z,43,43,00043M03:00:24.114,00043M18:04:59.943,0043 02:37:40,0043 17:42:30,26.408,26.707,null,null,26.42,36,1.895,WE__0043___________DER_WS__________________P02.CSV
2021-04-05T21:26:08.86Z,urn:nasa:pds:mars2020_meda:data_derived_env:we__0045___________der_ws__________________p,Mars 2020 MEDA Wind Sensor Derived Data,2021-04-05T10:06:06.293Z,2021-04-06T08:47:11.436Z,45,45,00045M00:00:23.851,00045M22:05:03.987,0044 23:38:21,0045 21:43:22,27.299,27.736,null,null,27.34,36,3.547,WE__0045___________DER_WS__________________P02.CSV
2021-04-07T01:42:30.66Z,urn:nasa:pds:mars2020_meda:data_derived_env:we__0046___________der_ws__________________p,Mars 2020 MEDA Wind Sensor Derived Data,2021-04-06T18:58:53.226Z,2021-04-07T08:25:08.107Z,46,46,00046M08:00:23.794,00046M21:05:04.371,0046 07:38:51,0046 20:43:43,27.932,28.19,null,null,27.9,36,2.942,WE__0046___________DER_WS__________________P02.CSV
2021-04-11T03:24:06.94Z,urn:nasa:pds:mars2020_meda:data_derived_env:we__0050___________der_ws__________________p,Mars 2020 MEDA Wind Sensor Derived Data,2021-04-11T01:13:00.127Z,2021-04-11T05:35:13.751Z,50,50,00050M11:30:23.342,00050M15:45:36.002,0050 11:10:21,0050 15:25:38,29.892,29.975,null,null,29.87,36,1.907,WE__0050___________DER_WS__________________P02.CSV
2021-04-11T22:47:30.49Z,urn:nasa:pds:mars2020_meda:data_derived_env:we__0051___________der_ws__________________p,Mars 2020 MEDA Wind Sensor Derived Data,2021-04-11T14:03:36.491Z,2021-04-12T07:30:24.487Z,51,51,00051M00:00:22.620,00051M16:59:10.143,0050 23:40:32,0051 16:39:35,30.137,30.471,null,null,30.1,36,3.344,WE__0051___________DER_WS__________________P02.CSV
2021-04-14T03:01:20.97Z,urn:nasa:pds:mars2020_meda:data_derived_env:we__0053___________der_ws__________________p,Mars 2020 MEDA Wind Sensor Derived Data,2021-04-13T20:31:02.037Z,2021-04-14T09:32:39.907Z,53,53,00053M05:00:22.829,00053M17:41:05.913,0053 04:41:21,0053 17:22:15,31.177,31.425,null,null,31.25,36,3.188,WE__0053___________DER_WS__________________P02.CSV
2021-04-15T01:16:24.10Z,urn:nasa:pds:mars2020_meda:data_derived_env:we__0054___________der_ws__________________p,Mars 2020 MEDA Wind Sensor Derived Data,2021-04-14T18:05:40.649Z,2021-04-15T08:28:07.557Z,54,54,00054M02:00:23.095,00054M15:59:45.478,0054 01:41:40,0054 15:41:15,31.588,31.862,null,null,31.57,36,2.176,WE__0054___________DER_WS__________________P02.CSV
2021-04-16T05:01:37.39Z,urn:nasa:pds:mars2020_meda:data_derived_env:we__0055___________der_ws__________________p,Mars 2020 MEDA Wind Sensor Derived Data,2021-04-15T16:41:57.291Z,2021-04-16T17:20:17.490Z,55,55,00055M00:00:22.448,00055M23:59:09.411,0054 23:41:59,0055 23:41:08,32.019,32.488,null,null,32.16,36,4.707,WE__0055___________DER_WS__________________P02.CSV
2021-04-17T11:07:23.74Z,urn:nasa:pds:mars2020_meda:data_derived_env:we__0056___________der_ws__________________p,Mars 2020 MEDA Wind Sensor Derived Data,2021-04-17T05:10:30.326Z,2021-04-17T17:04:17.163Z,56,56,00056M11:30:22.110,00056M23:05:03.086,0056 11:12:31,0056 22:47:23,32.713,32.939,null,null,32.76,36,2.684,WE__0056___________DER_WS__________________P02.CSV
2021-04-18T08:26:11.35Z,urn:nasa:pds:mars2020_meda:data_derived_env:we__0057___________der_ws__________________p,Mars 2020 MEDA Wind Sensor Derived Data,2021-04-18T05:19:16.011Z,2021-04-18T11:33:06.688Z,57,57,00057M11:00:22.038,00057M17:04:12.566,0057 10:42:53,0057 16:46:49,33.171,33.29,null,null,33.07,36,2.387,WE__0057___________DER_WS__________________P02.CSV
2021-04-19T05:30:23.94Z,urn:nasa:pds:mars2020_meda:data_derived_env:we__0058___________der_ws__________________p,Mars 2020 MEDA Wind Sensor Derived Data,2021-04-18T22:47:18.507Z,2021-04-19T12:13:29.388Z,58,58,00058M04:00:22.068,00058M17:04:58.753,0058 03:43:08,0058 16:47:56,33.503,33.758,null,null,33.53,36,2.594,WE__0058___________DER_WS__________________P02.CSV
2021-04-20T08:13:20.70Z,urn:nasa:pds:mars2020_meda:data_derived_env:we__0059___________der_ws__________________p,Mars 2020 MEDA Wind Sensor Derived Data,2021-04-20T04:35:08.352Z,2021-04-20T11:51:33.059Z,59,59,00059M09:00:21.834,00059M16:05:05.950,0059 08:43:34,0059 15:48:24,34.068,34.206,null,null,33.99,36,2.481,WE__0059___________DER_WS__________________P02.CSV
2021-04-21T10:57:28.96Z,urn:nasa:pds:mars2020_meda:data_derived_env:we__0060___________der_ws__________________p,Mars 2020 MEDA Wind Sensor Derived Data,2021-04-21T04:13:05.023Z,2021-04-21T17:41:52.906Z,60,60,00060M08:00:22.218,00060M21:07:31.703,0060 07:43:55,0060 20:51:16,34.515,34.771,null,null,34.58,36,3.918,WE__0060___________DER_WS__________________P02.CSV
2021-04-22T13:39:35.72Z,urn:nasa:pds:mars2020_meda:data_derived_env:we__0061___________der_ws__________________p,Mars 2020 MEDA Wind Sensor Derived Data,2021-04-22T07:57:36.810Z,2021-04-22T19:20:34.633Z,61,61,00061M11:00:21.866,00061M22:05:03.298,0061 10:44:19,0061 21:49:10,35.04,35.256,null,null,35.03,36,2.953,WE__0061___________DER_WS__________________P02.CSV
2021-04-23T10:12:34.80Z,urn:nasa:pds:mars2020_meda:data_derived_env:we__0062___________der_ws__________________p,Mars 2020 MEDA Wind Sensor Derived Data,2021-04-22T23:22:21.248Z,2021-04-23T21:01:48.362Z,62,62,00062M02:00:21.778,00062M23:05:02.828,0062 01:44:32,0062 22:49:32,35.332,35.741,null,null,35.48,36,3.426,WE__0062___________DER_WS__________________P02.CSV
2021-04-24T06:41:29.88Z,urn:nasa:pds:mars2020_meda:data_derived_env:we__0063___________der_ws__________________p,Mars 2020 MEDA Wind Sensor Derived Data,2021-04-23T21:58:38.889Z,2021-04-24T15:25:20.884Z,63,63,00063M00:00:22.104,00063M16:59:03.787,0062 23:44:52,0063 16:43:49,35.759,36.088,null,null,35.8,36,2.664,WE__0063___________DER_WS__________________P02.CSV
2021-04-25T12:32:54.23Z,urn:nasa:pds:mars2020_meda:data_derived_env:we__0064___________der_ws__________________p,Mars 2020 MEDA Wind Sensor Derived Data,2021-04-25T02:44:49.706Z,2021-04-25T22:20:58.762Z,64,64,00064M04:00:21.810,00064M23:05:02.742,0064 03:45:17,0064 22:50:15,36.302,36.672,null,null,36.39,36,3.336,WE__0064___________DER_WS__________________P02.CSV
2021-04-27T11:48:05.57Z,urn:nasa:pds:mars2020_meda:data_derived_env:we__0066___________der_ws__________________p,Mars 2020 MEDA Wind Sensor Derived Data,2021-04-26T23:57:01.988Z,2021-04-27T23:40:09.162Z,66,66,00066M00:00:00.076,00066M23:05:02.656,0065 23:45:34,0066 22:50:57,37.154,37.6,null,null,37.29,36,4.383,WE__0066___________DER_WS__________________P02.CSV
2021-04-28T17:36:05.92Z,urn:nasa:pds:mars2020_meda:data_derived_env:we__0067___________der_ws__________________p,Mars 2020 MEDA Wind Sensor Derived Data,2021-04-28T11:55:07.009Z,2021-04-28T23:18:04.832Z,67,67,00067M11:00:20.634,00067M22:05:02.067,0067 10:46:26,0067 21:51:17,37.831,38.045,null,null,37.84,36,2.742,WE__0067___________DER_WS__________________P02.CSV
2021-04-29T16:12:23.56Z,urn:nasa:pds:mars2020_meda:data_derived_env:we__0068___________der_ws__________________p,Mars 2020 MEDA Wind Sensor Derived Data,2021-04-29T09:29:45.621Z,2021-04-29T22:56:01.503Z,68,68,00068M08:00:20.901,00068M21:05:02.452,0068 07:46:44,0068 20:51:37,38.236,38.489,null,null,38.29,36,3.016,WE__0068___________DER_WS__________________P02.CSV
2021-04-30T18:53:11.57Z,urn:nasa:pds:mars2020_meda:data_derived_env:we__0069___________der_ws__________________p,Mars 2020 MEDA Wind Sensor Derived Data,2021-04-30T11:11:00.350Z,2021-05-01T02:35:22.788Z,69,69,00069M09:00:21.404,00069M23:59:59.904,0069 08:47:07,0069 23:46:58,38.719,39.008,null,null,38.74,36,2.524,WE__0069___________DER_WS__________________P02.CSV
2021-05-01T14:26:26.12Z,urn:nasa:pds:mars2020_meda:data_derived_env:we__0070___________der_ws__________________p,Mars 2020 MEDA Wind Sensor Derived Data,2021-05-01T02:35:23.288Z,2021-05-02T02:18:28.961Z,70,70,00070M00:00:00.391,00070M23:05:01.510,0069 23:46:59,0070 22:52:20,39.008,39.453,null,null,39.1,36,3.93,WE__0070___________DER_WS__________________P02.CSV
2021-05-02T18:14:13.16Z,urn:nasa:pds:mars2020_meda:data_derived_env:we__0071___________der_ws__________________p,Mars 2020 MEDA Wind Sensor Derived Data,2021-05-02T12:30:10.750Z,2021-05-02T23:58:15.576Z,71,71,00071M09:00:21.317,00071M20:10:01.538,0071 08:47:49,0071 19:57:38,39.644,39.859,null,null,39.64,36,2.735,WE__0071___________DER_WS__________________P02.CSV
2021-05-05T17:05:46.92Z,urn:nasa:pds:mars2020_meda:data_derived_env:we__0074___________der_ws__________________p,Mars 2020 MEDA Wind Sensor Derived Data,2021-05-05T05:13:44.087Z,2021-05-06T04:56:49.760Z,74,74,00074M00:00:00.219,00074M23:05:01.338,0073 23:48:22,0074 22:53:43,40.856,41.299,null,null,40.98,36,3.95,WE__0074___________DER_WS__________________P02.CSV
2021-05-06T15:38:28.31Z,urn:nasa:pds:mars2020_meda:data_derived_env:we__0075___________der_ws__________________p,Mars 2020 MEDA Wind Sensor Derived Data,2021-05-06T08:58:37.374Z,2021-05-06T22:18:19.253Z,75,75,00075M03:00:20.791,00075M15:58:38.881,0075 02:49:06,0075 15:47:35,41.374,41.623,null,null,41.43,36,3.133,WE__0075___________DER_WS__________________P02.CSV
2021-05-07T16:23:18.51Z,urn:nasa:pds:mars2020_meda:data_derived_env:we__0076___________der_ws__________________p,Mars 2020 MEDA Wind Sensor Derived Data,2021-05-07T10:45:00.106Z,2021-05-07T22:02:36.926Z,76,76,00076M04:05:21.055,00076M15:04:50.074,0076 03:54:27,0076 14:54:06,41.856,42.067,null,null,41.88,36,2.532,WE__0076___________DER_WS__________________P02.CSV
2021-05-08T22:06:08.61Z,urn:nasa:pds:mars2020_meda:data_derived_env:we__0077___________der_ws__________________p,Mars 2020 MEDA Wind Sensor Derived Data,2021-05-08T12:21:12.832Z,2021-05-09T07:52:04.386Z,77,77,00077M05:00:27.636,00077M23:59:59.560,0077 04:49:55,0077 23:49:43,42.334,42.697,null,null,42.33,36,2.825,WE__0077___________DER_WS__________________P02.CSV
2021-05-09T18:42:02.69Z,urn:nasa:pds:mars2020_meda:data_derived_env:we__0078___________der_ws__________________p,Mars 2020 MEDA Wind Sensor Derived Data,2021-05-09T07:52:04.886Z,2021-05-10T05:32:00.501Z,78,78,00078M00:00:00.047,00078M21:05:08.834,0077 23:49:44,0078 20:55:10,42.697,43.101,null,null,42.78,36,4.321,WE__0078___________DER_WS__________________P02.CSV
2021-05-10T20:51:12.18Z,urn:nasa:pds:mars2020_meda:data_derived_env:we__0079___________der_ws__________________p,Mars 2020 MEDA Wind Sensor Derived Data,2021-05-10T08:32:09.086Z,2021-05-11T09:11:15.286Z,79,79,00079M00:00:28.228,00079M23:59:59.961,0078 23:50:32,0079 23:50:24,43.157,43.616,null,null,43.22,36,4.293,WE__0079___________DER_WS__________________P02.CSV
2021-05-11T21:02:22.37Z,urn:nasa:pds:mars2020_meda:data_derived_env:we__0080___________der_ws__________________p,Mars 2020 MEDA Wind Sensor Derived Data,2021-05-11T09:11:15.786Z,2021-05-12T08:54:28.959Z,80,80,00080M00:00:00.447,00080M23:05:08.866,0079 23:50:25,0080 22:55:52,43.616,44.057,null,null,43.67,36,2.887,WE__0080___________DER_WS__________________P02.CSV
2021-05-12T22:10:22.58Z,urn:nasa:pds:mars2020_meda:data_derived_env:we__0081___________der_ws__________________p,Mars 2020 MEDA Wind Sensor Derived Data,2021-05-12T09:51:19.486Z,2021-05-13T10:30:25.685Z,81,81,00081M00:00:28.142,00081M23:59:59.875,0080 23:51:12,0081 23:51:04,44.075,44.533,null,null,44.21,36,4.043,WE__0081___________DER_WS__________________P02.CSV
2021-05-13T22:22:32.77Z,urn:nasa:pds:mars2020_meda:data_derived_env:we__0082___________der_ws__________________p,Mars 2020 MEDA Wind Sensor Derived Data,2021-05-13T10:30:26.185Z,2021-05-14T10:13:39.359Z,82,82,00082M00:00:00.361,00082M23:05:08.780,0081 23:51:05,0082 22:56:32,44.533,44.974,null,null,44.65,36,4.317,WE__0082___________DER_WS__________________P02.CSV
2021-05-14T23:30:32.98Z,urn:nasa:pds:mars2020_meda:data_derived_env:we__0083___________der_ws__________________p,Mars 2020 MEDA Wind Sensor Derived Data,2021-05-14T11:10:29.885Z,2021-05-15T11:49:36.085Z,83,83,00083M00:00:28.056,00083M23:59:59.789,0082 23:51:52,0083 23:51:44,44.992,45.449,null,null,45.1,36,2.86,WE__0083___________DER_WS__________________P02.CSV
2021-05-15T23:41:43.17Z,urn:nasa:pds:mars2020_meda:data_derived_env:we__0084___________der_ws__________________p,Mars 2020 MEDA Wind Sensor Derived Data,2021-05-15T11:49:36.585Z,2021-05-16T11:32:49.758Z,84,84,00084M00:00:00.275,00084M23:05:08.694,0083 23:51:44,0084 22:57:12,45.449,45.889,null,null,45.54,36,4.325,WE__0084___________DER_WS__________________P02.CSV
2021-05-17T00:49:43.38Z,urn:nasa:pds:mars2020_meda:data_derived_env:we__0085___________der_ws__________________p,Mars 2020 MEDA Wind Sensor Derived Data,2021-05-16T12:29:40.285Z,2021-05-17T13:08:46.485Z,85,85,00085M00:00:27.970,00085M23:59:59.702,0084 23:52:32,0085 23:52:23,45.907,46.364,null,null,45.99,36,4.793,WE__0085___________DER_WS__________________P02.CSV
2021-05-19T02:08:53.78Z,urn:nasa:pds:mars2020_meda:data_derived_env:we__0087___________der_ws__________________p,Mars 2020 MEDA Wind Sensor Derived Data,2021-05-18T13:48:50.685Z,2021-05-19T14:27:56.884Z,87,87,00087M00:00:27.884,00087M23:59:59.616,0086 23:53:11,0087 23:53:02,46.821,47.277,null,null,46.88,36,3.321,WE__0087___________DER_WS__________________P02.CSV
2021-05-20T02:19:33.97Z,urn:nasa:pds:mars2020_meda:data_derived_env:we__0088___________der_ws__________________p,Mars 2020 MEDA Wind Sensor Derived Data,2021-05-19T14:27:57.384Z,2021-05-20T14:11:10.557Z,88,88,00088M00:00:00.103,00088M23:05:08.522,0087 23:53:02,0088 22:58:29,47.277,47.716,null,null,47.32,36,4.11,WE__0088___________DER_WS__________________P02.CSV
2021-05-21T02:28:04.15Z,urn:nasa:pds:mars2020_meda:data_derived_env:we__0089___________der_ws__________________p,Mars 2020 MEDA Wind Sensor Derived Data,2021-05-20T15:08:01.084Z,2021-05-21T13:49:07.228Z,89,89,00089M00:00:27.798,00089M22:05:08.906,0088 23:53:49,0089 21:58:48,47.734,48.153,null,null,47.9,36,3.731,WE__0089___________DER_WS__________________P02.CSV
2021-05-22T04:40:37.40Z,urn:nasa:pds:mars2020_meda:data_derived_env:we__0090___________der_ws__________________p,Mars 2020 MEDA Wind Sensor Derived Data,2021-05-21T17:50:53.842Z,2021-05-22T15:30:20.957Z,90,90,00090M02:00:27.386,00090M23:05:08.436,0090 01:54:10,0090 22:59:08,48.228,48.628,null,null,48.34,36,3.848,WE__0090___________DER_WS__________________P02.CSV
2021-05-23T03:47:14.55Z,urn:nasa:pds:mars2020_meda:data_derived_env:we__0091___________der_ws__________________p,Mars 2020 MEDA Wind Sensor Derived Data,2021-05-22T16:27:11.484Z,2021-05-23T15:08:17.628Z,91,91,00091M00:00:27.712,00091M22:05:08.820,0090 23:54:28,0091 21:59:26,48.645,49.064,null,null,48.79,36,4.266,WE__0091___________DER_WS__________________P02.CSV
2021-05-24T04:58:08.77Z,urn:nasa:pds:mars2020_meda:data_derived_env:we__0092___________der_ws__________________p,Mars 2020 MEDA Wind Sensor Derived Data,2021-05-23T19:10:04.242Z,2021-05-24T14:46:13.298Z,92,92,00092M02:00:27.300,00092M21:05:08.232,0092 01:54:48,0092 20:59:44,49.139,49.5,null,null,49.23,36,2.407,WE__0092___________DER_WS__________________P02.CSV
2021-05-25T05:06:24.95Z,urn:nasa:pds:mars2020_meda:data_derived_env:we__0093___________der_ws__________________p,Mars 2020 MEDA Wind Sensor Derived Data,2021-05-24T17:46:21.883Z,2021-05-25T16:27:28.027Z,93,93,00093M00:00:27.626,00093M22:05:08.734,0092 23:55:05,0093 22:00:04,49.556,49.974,null,null,49.67,36,3.387,WE__0093___________DER_WS__________________P02.CSV
2021-05-26T06:17:19.67Z,urn:nasa:pds:mars2020_meda:data_derived_env:we__0094___________der_ws__________________p,Mars 2020 MEDA Wind Sensor Derived Data,2021-05-25T20:29:15.642Z,2021-05-26T16:05:23.698Z,94,94,00094M02:00:28.187,00094M21:05:08.146,0094 01:55:26,0094 21:00:21,50.049,50.41,null,null,50.11,36,3.313,WE__0094___________DER_WS__________________P02.CSV
2021-05-27T06:26:35.35Z,urn:nasa:pds:mars2020_meda:data_derived_env:we__0095___________der_ws__________________p,Mars 2020 MEDA Wind Sensor Derived Data,2021-05-26T19:05:32.283Z,2021-05-27T17:46:38.427Z,95,95,00095M00:00:27.540,00095M22:05:08.648,0094 23:55:43,0095 22:00:41,50.465,50.883,null,null,50.56,36,4.344,WE__0095___________DER_WS__________________P02.CSV
2021-05-28T02:28:15.42Z,urn:nasa:pds:mars2020_meda:data_derived_env:we__0096___________der_ws__________________p,Mars 2020 MEDA Wind Sensor Derived Data,2021-05-27T21:48:26.041Z,2021-05-28T07:08:04.806Z,96,96,00096M02:00:28.101,00096M11:05:08.442,0096 01:56:03,0096 11:00:51,50.957,51.129,null,null,51,36,1.442,WE__0096___________DER_WS__________________P02.CSV
2021-05-30T14:03:25.61Z,urn:nasa:pds:mars2020_meda:data_derived_env:we__0098___________der_ws__________________p,Mars 2020 MEDA Wind Sensor Derived Data,2021-05-30T09:24:05.732Z,2021-05-30T18:43:45.497Z,98,98,00098M12:00:27.632,00098M21:05:08.947,0098 11:56:47,0098 21:01:36,52.054,52.226,null,null,52.1,36,1.926,WE__0098___________DER_WS__________________P02.CSV